Information on these data can be found in provided Readme document
Contact Info: Zachary Fasnacht (zachary.fasnacht@ssaihq.com); Nickolay Krotkov (nickolay.a.krotkov@nasa.gov); Lok Lamsal (lok.lamsal@nasa.gov)

FillValue: -999.
ScaleFactor: 1e15
Units: molecules/cm^2

Date(yyyy-mm-dd),City,Country,LonCenter,LatCenter,BoundingCoordinates,Median,Q1,Q3,Mean,Baseline_Median,Baseline_Q1,Baseline_Q3,Baseline_Mean,NumGoodSamples,NumTotalSamples
2015-01-01,Toronto,Canada,-79.4001,43.6667,[-79.9001 43.1667 -78.9001 44.1667],5.796,5.043,7.899,6.45,3.715,2.631,7.58,5.723,29.0,606.0
2015-01-02,Toronto,Canada,-79.4001,43.6667,[-79.9001 43.1667 -78.9001 44.1667],5.796,4.822,7.899,6.257,3.721,2.619,7.663,5.716,35.0,598.0
2015-01-03,Toronto,Canada,-79.4001,43.6667,[-79.9001 43.1667 -78.9001 44.1667],5.468,4.127,7.067,5.347,3.338,2.393,6.765,5.177,28.0,614.0
2015-01-04,Toronto,Canada,-79.4001,43.6667,[-79.9001 43.1667 -78.9001 44.1667],5.666,4.746,7.899,6.403,3.408,2.62,6.667,5.237,31.0,608.0
2015-01-05,Toronto,Canada,-79.4001,43.6667,[-79.9001 43.1667 -78.9001 44.1667],5.666,4.746,7.899,6.403,3.408,2.62,6.667,5.237,31.0,597.0
2015-01-06,Toronto,Canada,-79.4001,43.6667,[-79.9001 43.1667 -78.9001 44.1667],5.666,4.746,7.899,6.403,3.405,2.594,6.597,5.162,31.0,605.0
2015-01-07,Toronto,Canada,-79.4001,43.6667,[-79.9001 43.1667 -78.9001 44.1667],5.666,4.746,7.899,6.403,3.442,2.637,6.749,5.463,31.0,603.0
2015-01-08,Toronto,Canada,-79.4001,43.6667,[-79.9001 43.1667 -78.9001 44.1667],5.666,4.746,7.899,6.403,3.319,2.469,6.512,5.245,31.0,602.0
2015-01-09,Toronto,Canada,-79.4001,43.6667,[-79.9001 43.1667 -78.9001 44.1667],5.666,4.746,7.899,6.403,3.534,2.536,6.466,5.336,31.0,565.0
2015-01-10,Toronto,Canada,-79.4001,43.6667,[-79.9001 43.1667 -78.9001 44.1667],7.899,5.56,8.882,8.451,3.451,2.404,6.476,5.45,10.0,568.0
2015-01-11,Toronto,Canada,-79.4001,43.6667,[-79.9001 43.1667 -78.9001 44.1667],7.899,5.56,8.882,8.451,3.445,2.398,6.464,5.433,10.0,557.0
2015-01-12,Toronto,Canada,-79.4001,43.6667,[-79.9001 43.1667 -78.9001 44.1667],7.899,5.56,8.882,8.451,4.139,2.222,6.763,5.161,10.0,560.0
2015-01-13,Toronto,Canada,-79.4001,43.6667,[-79.9001 43.1667 -78.9001 44.1667],8.524,7.067,12.782,8.976,4.371,3.038,6.835,5.397,24.0,561.0
2015-01-14,Toronto,Canada,-79.4001,43.6667,[-79.9001 43.1667 -78.9001 44.1667],8.524,7.067,12.782,8.976,4.705,3.45,6.923,5.938,24.0,554.0
2015-01-15,Toronto,Canada,-79.4001,43.6667,[-79.9001 43.1667 -78.9001 44.1667],9.075,4.748,14.753,10.716,5.387,3.208,7.846,6.268,47.0,557.0
2015-01-16,Toronto,Canada,-79.4001,43.6667,[-79.9001 43.1667 -78.9001 44.1667],9.599,4.748,14.753,10.816,5.968,3.406,8.489,6.732,46.0,563.0
2015-01-17,Toronto,Canada,-79.4001,43.6667,[-79.9001 43.1667 -78.9001 44.1667],10.171,6.351,15.352,11.262,6.393,4.064,8.657,6.912,40.0,562.0
2015-01-18,Toronto,Canada,-79.4001,43.6667,[-79.9001 43.1667 -78.9001 44.1667],8.882,4.748,13.622,10.228,6.698,3.841,9.376,7.508,59.0,553.0
2015-01-19,Toronto,Canada,-79.4001,43.6667,[-79.9001 43.1667 -78.9001 44.1667],8.312,4.532,13.622,10.087,6.971,4.433,10.127,8.034,56.0,568.0
2015-01-20,Toronto,Canada,-79.4001,43.6667,[-79.9001 43.1667 -78.9001 44.1667],9.075,4.748,15.352,11.005,6.793,4.291,10.568,8.035,70.0,563.0
2015-01-21,Toronto,Canada,-79.4001,43.6667,[-79.9001 43.1667 -78.9001 44.1667],9.075,4.748,15.352,11.005,6.92,4.252,10.785,8.198,70.0,549.0
2015-01-22,Toronto,Canada,-79.4001,43.6667,[-79.9001 43.1667 -78.9001 44.1667],9.075,4.748,15.352,11.005,6.807,4.244,10.823,7.848,70.0,554.0
2015-01-23,Toronto,Canada,-79.4001,43.6667,[-79.9001 43.1667 -78.9001 44.1667],9.075,4.748,15.352,11.005,7.027,4.294,11.307,8.312,70.0,556.0
2015-01-24,Toronto,Canada,-79.4001,43.6667,[-79.9001 43.1667 -78.9001 44.1667],8.369,4.748,15.352,10.853,6.67,4.274,11.392,8.319,71.0,597.0
2015-01-25,Toronto,Canada,-79.4001,43.6667,[-79.9001 43.1667 -78.9001 44.1667],8.369,4.748,15.352,10.853,6.897,4.055,11.106,8.02,71.0,601.0
2015-01-26,Toronto,Canada,-79.4001,43.6667,[-79.9001 43.1667 -78.9001 44.1667],8.369,4.748,15.352,10.853,7.047,4.192,11.041,8.078,71.0,606.0
2015-01-27,Toronto,Canada,-79.4001,43.6667,[-79.9001 43.1667 -78.9001 44.1667],8.369,4.748,14.753,10.733,6.154,3.803,10.581,7.699,76.0,598.0
2015-01-28,Toronto,Canada,-79.4001,43.6667,[-79.9001 43.1667 -78.9001 44.1667],8.312,4.54,15.962,11.075,6.047,3.695,10.856,7.664,62.0,600.0
2015-01-29,Toronto,Canada,-79.4001,43.6667,[-79.9001 43.1667 -78.9001 44.1667],8.134,4.564,15.962,10.991,6.253,3.791,11.173,7.879,68.0,602.0
2015-01-30,Toronto,Canada,-79.4001,43.6667,[-79.9001 43.1667 -78.9001 44.1667],7.467,3.909,11.632,10.025,5.919,3.54,9.931,7.299,45.0,596.0
2015-01-31,Toronto,Canada,-79.4001,43.6667,[-79.9001 43.1667 -78.9001 44.1667],7.467,3.909,11.632,10.025,5.892,3.607,10.022,7.392,45.0,599.0
2015-02-01,Toronto,Canada,-79.4001,43.6667,[-79.9001 43.1667 -78.9001 44.1667],7.467,3.909,11.632,10.025,5.892,3.607,10.022,7.392,45.0,603.0
2015-02-02,Toronto,Canada,-79.4001,43.6667,[-79.9001 43.1667 -78.9001 44.1667],8.369,4.875,20.679,12.319,5.914,3.703,10.567,7.331,26.0,602.0
2015-02-03,Toronto,Canada,-79.4001,43.6667,[-79.9001 43.1667 -78.9001 44.1667],8.682,5.805,20.679,12.647,5.509,3.406,9.866,7.013,28.0,595.0
2015-02-04,Toronto,Canada,-79.4001,43.6667,[-79.9001 43.1667 -78.9001 44.1667],8.134,5.805,11.632,9.566,6.054,2.744,9.268,6.73,14.0,611.0
2015-02-05,Toronto,Canada,-79.4001,43.6667,[-79.9001 43.1667 -78.9001 44.1667],8.134,6.955,9.884,9.282,6.132,2.906,9.233,6.78,18.0,606.0
2015-02-06,Toronto,Canada,-79.4001,43.6667,[-79.9001 43.1667 -78.9001 44.1667],8.134,6.955,9.884,9.282,6.249,3.143,9.719,6.876,18.0,596.0
2015-02-07,Toronto,Canada,-79.4001,43.6667,[-79.9001 43.1667 -78.9001 44.1667],3.408,0.384,8.331,5.527,6.136,2.61,9.062,6.484,27.0,604.0
2015-02-08,Toronto,Canada,-79.4001,43.6667,[-79.9001 43.1667 -78.9001 44.1667],4.564,0.384,8.331,5.719,6.354,2.949,9.091,6.53,26.0,604.0
2015-02-09,Toronto,Canada,-79.4001,43.6667,[-79.9001 43.1667 -78.9001 44.1667],3.822,0.558,6.955,4.619,3.959,1.486,7.558,5.252,42.0,604.0
2015-02-10,Toronto,Canada,-79.4001,43.6667,[-79.9001 43.1667 -78.9001 44.1667],3.822,0.558,6.955,4.619,3.893,1.526,7.729,5.295,42.0,565.0
2015-02-11,Toronto,Canada,-79.4001,43.6667,[-79.9001 43.1667 -78.9001 44.1667],3.661,0.558,5.349,4.386,4.15,1.635,7.625,5.659,37.0,570.0
2015-02-12,Toronto,Canada,-79.4001,43.6667,[-79.9001 43.1667 -78.9001 44.1667],3.661,0.72,5.349,4.461,3.836,1.716,6.063,5.055,43.0,564.0
2015-02-13,Toronto,Canada,-79.4001,43.6667,[-79.9001 43.1667 -78.9001 44.1667],3.603,0.558,4.851,3.869,3.822,1.7,5.958,4.931,37.0,569.0
2015-02-14,Toronto,Canada,-79.4001,43.6667,[-79.9001 43.1667 -78.9001 44.1667],3.603,0.558,4.851,3.869,3.52,1.525,5.676,4.566,37.0,569.0
2015-02-15,Toronto,Canada,-79.4001,43.6667,[-79.9001 43.1667 -78.9001 44.1667],3.603,0.558,4.851,3.869,3.777,1.663,6.196,4.907,37.0,561.0
2015-02-16,Toronto,Canada,-79.4001,43.6667,[-79.9001 43.1667 -78.9001 44.1667],3.603,0.558,4.851,3.705,3.428,1.773,5.918,4.622,40.0,566.0
2015-02-17,Toronto,Canada,-79.4001,43.6667,[-79.9001 43.1667 -78.9001 44.1667],3.603,0.558,4.851,3.705,3.511,1.873,6.013,4.638,40.0,569.0
2015-02-18,Toronto,Canada,-79.4001,43.6667,[-79.9001 43.1667 -78.9001 44.1667],1.609,0.558,3.661,2.487,2.888,1.702,5.483,4.129,56.0,567.0
2015-02-19,Toronto,Canada,-79.4001,43.6667,[-79.9001 43.1667 -78.9001 44.1667],1.609,0.605,3.661,2.477,3.775,2.101,6.9,4.703,61.0,559.0
2015-02-20,Toronto,Canada,-79.4001,43.6667,[-79.9001 43.1667 -78.9001 44.1667],1.562,0.705,3.542,2.213,3.704,2.111,6.819,4.605,63.0,577.0
2015-02-21,Toronto,Canada,-79.4001,43.6667,[-79.9001 43.1667 -78.9001 44.1667],1.609,0.772,3.603,2.79,3.877,2.198,6.658,4.714,73.0,573.0
2015-02-22,Toronto,Canada,-79.4001,43.6667,[-79.9001 43.1667 -78.9001 44.1667],1.982,1.271,3.661,3.042,3.97,2.326,6.373,4.714,64.0,557.0
2015-02-23,Toronto,Canada,-79.4001,43.6667,[-79.9001 43.1667 -78.9001 44.1667],1.562,0.705,3.603,2.82,3.798,2.158,6.578,4.713,82.0,561.0
2015-02-24,Toronto,Canada,-79.4001,43.6667,[-79.9001 43.1667 -78.9001 44.1667],1.283,0.651,2.614,2.547,3.881,2.356,6.228,4.819,66.0,560.0
2015-02-25,Toronto,Canada,-79.4001,43.6667,[-79.9001 43.1667 -78.9001 44.1667],1.271,0.636,2.132,2.399,3.515,2.194,5.812,4.422,73.0,601.0
2015-02-26,Toronto,Canada,-79.4001,43.6667,[-79.9001 43.1667 -78.9001 44.1667],1.271,0.636,2.132,2.399,3.498,2.146,5.362,4.317,73.0,601.0
2015-02-27,Toronto,Canada,-79.4001,43.6667,[-79.9001 43.1667 -78.9001 44.1667],1.134,0.633,1.982,2.269,3.513,2.221,5.386,4.329,67.0,603.0
2015-02-28,Toronto,Canada,-79.4001,43.6667,[-79.9001 43.1667 -78.9001 44.1667],1.134,0.636,1.982,2.233,3.736,2.264,5.819,4.635,74.0,592.0
2015-03-01,Toronto,Canada,-79.4001,43.6667,[-79.9001 43.1667 -78.9001 44.1667],1.134,0.636,1.878,2.201,3.684,2.242,6.128,4.69,77.0,595.0
2015-03-02,Toronto,Canada,-79.4001,43.6667,[-79.9001 43.1667 -78.9001 44.1667],1.472,0.705,2.44,2.465,3.454,2.08,5.803,4.393,105.0,597.0
2015-03-03,Toronto,Canada,-79.4001,43.6667,[-79.9001 43.1667 -78.9001 44.1667],1.472,0.705,2.494,2.493,3.479,2.271,5.801,4.498,102.0,591.0
2015-03-04,Toronto,Canada,-79.4001,43.6667,[-79.9001 43.1667 -78.9001 44.1667],1.472,0.827,2.494,2.486,3.29,2.175,5.549,4.336,140.0,597.0
2015-03-05,Toronto,Canada,-79.4001,43.6667,[-79.9001 43.1667 -78.9001 44.1667],1.472,0.837,2.715,2.754,3.528,2.135,5.841,4.49,122.0,603.0
2015-03-06,Toronto,Canada,-79.4001,43.6667,[-79.9001 43.1667 -78.9001 44.1667],1.472,0.837,2.846,2.77,3.046,1.917,4.9,4.129,118.0,602.0
2015-03-07,Toronto,Canada,-79.4001,43.6667,[-79.9001 43.1667 -78.9001 44.1667],1.374,0.76,2.715,2.771,3.013,1.828,4.904,4.105,123.0,593.0
2015-03-08,Toronto,Canada,-79.4001,43.6667,[-79.9001 43.1667 -78.9001 44.1667],1.311,0.705,2.44,2.35,2.715,1.691,4.737,4.004,113.0,608.0
2015-03-09,Toronto,Canada,-79.4001,43.6667,[-79.9001 43.1667 -78.9001 44.1667],1.311,0.705,2.44,2.35,2.629,1.636,4.084,3.794,113.0,605.0
2015-03-10,Toronto,Canada,-79.4001,43.6667,[-79.9001 43.1667 -78.9001 44.1667],1.5,0.887,2.494,2.434,2.689,1.702,4.596,3.641,95.0,595.0
2015-03-11,Toronto,Canada,-79.4001,43.6667,[-79.9001 43.1667 -78.9001 44.1667],1.597,0.936,3.369,3.067,2.631,1.576,4.83,3.762,112.0,602.0
2015-03-12,Toronto,Canada,-79.4001,43.6667,[-79.9001 43.1667 -78.9001 44.1667],1.878,1.012,3.441,3.223,2.907,1.639,5.25,4.127,105.0,603.0
2015-03-13,Toronto,Canada,-79.4001,43.6667,[-79.9001 43.1667 -78.9001 44.1667],2.44,1.354,6.514,4.33,3.495,1.78,6.695,4.844,133.0,602.0
2015-03-14,Toronto,Canada,-79.4001,43.6667,[-79.9001 43.1667 -78.9001 44.1667],2.44,1.354,6.514,4.33,3.736,2.221,6.482,4.921,133.0,564.0
2015-03-15,Toronto,Canada,-79.4001,43.6667,[-79.9001 43.1667 -78.9001 44.1667],2.494,1.311,5.735,4.105,3.529,2.05,6.135,4.521,136.0,569.0
2015-03-16,Toronto,Canada,-79.4001,43.6667,[-79.9001 43.1667 -78.9001 44.1667],2.846,1.374,5.845,4.376,3.782,2.169,6.255,4.73,161.0,563.0
2015-03-17,Toronto,Canada,-79.4001,43.6667,[-79.9001 43.1667 -78.9001 44.1667],3.214,1.374,6.561,4.468,3.964,2.224,6.455,4.722,144.0,569.0
2015-03-18,Toronto,Canada,-79.4001,43.6667,[-79.9001 43.1667 -78.9001 44.1667],3.214,1.374,6.561,4.468,3.847,2.166,6.462,4.675,144.0,571.0
2015-03-19,Toronto,Canada,-79.4001,43.6667,[-79.9001 43.1667 -78.9001 44.1667],4.263,1.881,8.333,5.211,4.194,2.361,6.695,4.788,106.0,563.0
2015-03-20,Toronto,Canada,-79.4001,43.6667,[-79.9001 43.1667 -78.9001 44.1667],4.263,1.881,8.333,5.211,4.314,2.424,6.775,4.908,106.0,566.0
2015-03-21,Toronto,Canada,-79.4001,43.6667,[-79.9001 43.1667 -78.9001 44.1667],4.263,1.881,8.743,5.232,4.357,2.463,6.711,4.864,105.0,572.0
2015-03-22,Toronto,Canada,-79.4001,43.6667,[-79.9001 43.1667 -78.9001 44.1667],3.638,2.221,5.948,4.796,4.305,2.567,6.346,4.872,126.0,571.0
2015-03-23,Toronto,Canada,-79.4001,43.6667,[-79.9001 43.1667 -78.9001 44.1667],3.638,2.221,5.948,4.796,4.338,2.624,6.31,4.832,126.0,564.0
2015-03-24,Toronto,Canada,-79.4001,43.6667,[-79.9001 43.1667 -78.9001 44.1667],4.013,2.228,7.153,5.338,4.505,2.688,6.686,5.022,131.0,579.0
2015-03-25,Toronto,Canada,-79.4001,43.6667,[-79.9001 43.1667 -78.9001 44.1667],4.263,2.479,7.32,5.441,4.635,2.737,6.775,5.125,157.0,576.0
2015-03-26,Toronto,Canada,-79.4001,43.6667,[-79.9001 43.1667 -78.9001 44.1667],3.927,2.228,6.864,5.3,4.551,2.748,6.635,5.071,140.0,562.0
2015-03-27,Toronto,Canada,-79.4001,43.6667,[-79.9001 43.1667 -78.9001 44.1667],3.927,2.228,6.864,5.3,4.452,2.682,6.683,5.066,140.0,566.0
2015-03-28,Toronto,Canada,-79.4001,43.6667,[-79.9001 43.1667 -78.9001 44.1667],3.322,1.951,5.139,4.611,4.17,2.515,6.083,4.626,112.0,569.0
2015-03-29,Toronto,Canada,-79.4001,43.6667,[-79.9001 43.1667 -78.9001 44.1667],3.322,1.951,5.139,4.611,4.193,2.493,6.197,4.657,112.0,610.0
2015-03-30,Toronto,Canada,-79.4001,43.6667,[-79.9001 43.1667 -78.9001 44.1667],3.402,2.591,6.037,5.163,4.262,2.689,6.445,4.817,102.0,612.0
2015-03-31,Toronto,Canada,-79.4001,43.6667,[-79.9001 43.1667 -78.9001 44.1667],3.365,2.479,5.774,4.877,3.955,2.558,6.153,4.582,74.0,613.0
2015-04-01,Toronto,Canada,-79.4001,43.6667,[-79.9001 43.1667 -78.9001 44.1667],3.683,2.895,6.037,5.479,4.039,2.726,6.047,4.646,63.0,601.0
2015-04-02,Toronto,Canada,-79.4001,43.6667,[-79.9001 43.1667 -78.9001 44.1667],3.683,2.895,6.037,5.479,4.049,2.758,6.023,4.716,63.0,605.0
2015-04-03,Toronto,Canada,-79.4001,43.6667,[-79.9001 43.1667 -78.9001 44.1667],3.683,2.895,6.037,5.479,4.073,2.809,6.041,4.706,63.0,605.0
2015-04-04,Toronto,Canada,-79.4001,43.6667,[-79.9001 43.1667 -78.9001 44.1667],3.683,2.895,6.037,5.479,4.008,2.808,5.907,4.637,63.0,598.0
2015-04-05,Toronto,Canada,-79.4001,43.6667,[-79.9001 43.1667 -78.9001 44.1667],3.408,2.527,5.526,4.654,3.908,2.672,5.937,4.542,100.0,599.0
2015-04-06,Toronto,Canada,-79.4001,43.6667,[-79.9001 43.1667 -78.9001 44.1667],3.543,2.5,6.864,5.549,3.641,2.61,5.84,4.564,68.0,605.0
2015-04-07,Toronto,Canada,-79.4001,43.6667,[-79.9001 43.1667 -78.9001 44.1667],3.569,2.5,6.266,5.153,3.484,2.236,5.465,4.325,92.0,602.0
2015-04-08,Toronto,Canada,-79.4001,43.6667,[-79.9001 43.1667 -78.9001 44.1667],3.492,2.087,5.613,4.241,3.574,2.221,5.334,4.084,115.0,595.0
2015-04-09,Toronto,Canada,-79.4001,43.6667,[-79.9001 43.1667 -78.9001 44.1667],3.492,2.17,5.123,3.884,3.613,2.311,5.361,4.058,103.0,608.0
2015-04-10,Toronto,Canada,-79.4001,43.6667,[-79.9001 43.1667 -78.9001 44.1667],3.569,2.368,5.613,4.32,3.483,2.319,5.057,3.921,126.0,620.0
2015-04-11,Toronto,Canada,-79.4001,43.6667,[-79.9001 43.1667 -78.9001 44.1667],3.569,2.368,5.613,4.32,3.512,2.324,5.114,3.967,126.0,609.0
2015-04-12,Toronto,Canada,-79.4001,43.6667,[-79.9001 43.1667 -78.9001 44.1667],3.281,1.918,4.891,3.83,3.527,2.259,5.176,3.994,159.0,614.0
2015-04-13,Toronto,Canada,-79.4001,43.6667,[-79.9001 43.1667 -78.9001 44.1667],3.281,1.918,4.891,3.83,3.54,2.313,5.009,3.942,159.0,614.0
2015-04-14,Toronto,Canada,-79.4001,43.6667,[-79.9001 43.1667 -78.9001 44.1667],3.3,1.94,5.123,3.962,3.519,2.239,5.038,3.902,164.0,611.0
2015-04-15,Toronto,Canada,-79.4001,43.6667,[-79.9001 43.1667 -78.9001 44.1667],3.3,1.94,5.123,3.962,3.531,2.191,5.005,3.894,164.0,574.0
2015-04-16,Toronto,Canada,-79.4001,43.6667,[-79.9001 43.1667 -78.9001 44.1667],3.3,1.94,5.123,3.962,3.514,2.156,5.08,3.901,164.0,579.0
2015-04-17,Toronto,Canada,-79.4001,43.6667,[-79.9001 43.1667 -78.9001 44.1667],3.402,1.971,5.123,3.982,3.575,2.227,5.057,3.879,192.0,568.0
2015-04-18,Toronto,Canada,-79.4001,43.6667,[-79.9001 43.1667 -78.9001 44.1667],3.229,1.55,4.891,3.664,3.56,2.099,5.177,3.86,203.0,573.0
2015-04-19,Toronto,Canada,-79.4001,43.6667,[-79.9001 43.1667 -78.9001 44.1667],3.209,1.493,4.891,3.615,3.589,2.098,5.207,3.873,216.0,575.0
2015-04-20,Toronto,Canada,-79.4001,43.6667,[-79.9001 43.1667 -78.9001 44.1667],3.229,1.48,5.123,3.693,3.673,2.181,5.437,4.04,179.0,570.0
2015-04-21,Toronto,Canada,-79.4001,43.6667,[-79.9001 43.1667 -78.9001 44.1667],3.229,1.598,4.757,3.629,3.514,2.048,5.272,3.908,218.0,570.0
2015-04-22,Toronto,Canada,-79.4001,43.6667,[-79.9001 43.1667 -78.9001 44.1667],3.175,1.506,4.444,3.468,3.601,2.109,5.269,3.888,194.0,575.0
2015-04-23,Toronto,Canada,-79.4001,43.6667,[-79.9001 43.1667 -78.9001 44.1667],3.219,1.55,4.444,3.419,3.479,1.933,5.371,3.83,182.0,575.0
2015-04-24,Toronto,Canada,-79.4001,43.6667,[-79.9001 43.1667 -78.9001 44.1667],2.778,1.215,4.402,3.31,3.367,1.876,5.305,3.807,181.0,568.0
2015-04-25,Toronto,Canada,-79.4001,43.6667,[-79.9001 43.1667 -78.9001 44.1667],2.626,1.127,4.281,2.724,3.563,1.745,5.339,3.719,174.0,570.0
2015-04-26,Toronto,Canada,-79.4001,43.6667,[-79.9001 43.1667 -78.9001 44.1667],2.61,1.127,4.236,2.749,3.59,1.872,5.273,3.733,193.0,594.0
2015-04-27,Toronto,Canada,-79.4001,43.6667,[-79.9001 43.1667 -78.9001 44.1667],3.142,1.277,4.444,2.992,3.543,1.782,5.187,3.66,160.0,581.0
2015-04-28,Toronto,Canada,-79.4001,43.6667,[-79.9001 43.1667 -78.9001 44.1667],3.142,1.277,4.444,2.992,3.353,1.824,5.056,3.585,160.0,588.0
2015-04-29,Toronto,Canada,-79.4001,43.6667,[-79.9001 43.1667 -78.9001 44.1667],3.049,1.181,4.354,2.814,3.48,1.823,5.176,3.592,155.0,591.0
2015-04-30,Toronto,Canada,-79.4001,43.6667,[-79.9001 43.1667 -78.9001 44.1667],3.219,1.644,4.912,3.668,3.551,1.94,5.264,3.834,185.0,632.0
2015-05-01,Toronto,Canada,-79.4001,43.6667,[-79.9001 43.1667 -78.9001 44.1667],3.219,1.644,4.912,3.664,3.856,2.08,5.405,4.0,190.0,633.0
2015-05-02,Toronto,Canada,-79.4001,43.6667,[-79.9001 43.1667 -78.9001 44.1667],3.495,1.795,5.5,3.929,3.89,2.024,5.755,4.124,175.0,633.0
2015-05-03,Toronto,Canada,-79.4001,43.6667,[-79.9001 43.1667 -78.9001 44.1667],3.742,2.416,5.578,4.226,3.903,2.194,5.758,4.176,174.0,623.0
2015-05-04,Toronto,Canada,-79.4001,43.6667,[-79.9001 43.1667 -78.9001 44.1667],3.846,2.527,5.578,4.336,3.887,2.219,5.687,4.162,166.0,623.0
2015-05-05,Toronto,Canada,-79.4001,43.6667,[-79.9001 43.1667 -78.9001 44.1667],3.846,2.527,5.578,4.336,3.695,2.259,5.581,4.024,166.0,623.0
2015-05-06,Toronto,Canada,-79.4001,43.6667,[-79.9001 43.1667 -78.9001 44.1667],3.879,2.416,6.258,4.641,3.436,2.212,5.27,3.931,127.0,618.0
2015-05-07,Toronto,Canada,-79.4001,43.6667,[-79.9001 43.1667 -78.9001 44.1667],4.171,2.556,6.833,4.83,3.565,2.261,5.43,4.046,164.0,622.0
2015-05-08,Toronto,Canada,-79.4001,43.6667,[-79.9001 43.1667 -78.9001 44.1667],4.427,2.556,6.844,4.926,3.733,2.224,5.487,4.027,148.0,625.0
2015-05-09,Toronto,Canada,-79.4001,43.6667,[-79.9001 43.1667 -78.9001 44.1667],3.846,2.536,6.746,4.778,3.542,2.232,5.457,4.031,153.0,625.0
2015-05-10,Toronto,Canada,-79.4001,43.6667,[-79.9001 43.1667 -78.9001 44.1667],3.846,2.476,6.844,4.914,3.625,2.191,5.457,4.071,168.0,616.0
2015-05-11,Toronto,Canada,-79.4001,43.6667,[-79.9001 43.1667 -78.9001 44.1667],3.742,2.554,6.746,4.764,3.521,2.163,5.531,4.006,177.0,602.0
2015-05-12,Toronto,Canada,-79.4001,43.6667,[-79.9001 43.1667 -78.9001 44.1667],3.742,2.554,6.746,4.756,3.543,2.233,5.499,4.082,179.0,616.0
2015-05-13,Toronto,Canada,-79.4001,43.6667,[-79.9001 43.1667 -78.9001 44.1667],3.485,2.536,6.654,4.676,3.5,2.261,5.506,4.064,190.0,603.0
2015-05-14,Toronto,Canada,-79.4001,43.6667,[-79.9001 43.1667 -78.9001 44.1667],3.42,2.554,6.264,4.517,3.382,2.2,5.464,4.068,231.0,607.0
2015-05-15,Toronto,Canada,-79.4001,43.6667,[-79.9001 43.1667 -78.9001 44.1667],3.321,2.486,5.829,4.097,3.302,2.182,5.199,3.879,201.0,608.0
2015-05-16,Toronto,Canada,-79.4001,43.6667,[-79.9001 43.1667 -78.9001 44.1667],3.164,2.098,4.795,3.806,3.202,2.021,4.657,3.672,225.0,609.0
2015-05-17,Toronto,Canada,-79.4001,43.6667,[-79.9001 43.1667 -78.9001 44.1667],2.96,2.006,4.289,3.54,3.142,2.022,4.581,3.594,212.0,574.0
2015-05-18,Toronto,Canada,-79.4001,43.6667,[-79.9001 43.1667 -78.9001 44.1667],2.96,2.033,4.427,3.566,3.086,1.977,4.508,3.505,203.0,577.0
2015-05-19,Toronto,Canada,-79.4001,43.6667,[-79.9001 43.1667 -78.9001 44.1667],3.011,2.09,4.673,3.717,3.115,2.015,4.666,3.597,227.0,572.0
2015-05-20,Toronto,Canada,-79.4001,43.6667,[-79.9001 43.1667 -78.9001 44.1667],3.164,2.187,4.768,3.855,3.23,2.032,4.693,3.676,250.0,575.0
2015-05-21,Toronto,Canada,-79.4001,43.6667,[-79.9001 43.1667 -78.9001 44.1667],3.216,2.271,4.795,3.917,3.343,2.127,4.693,3.746,283.0,577.0
2015-05-22,Toronto,Canada,-79.4001,43.6667,[-79.9001 43.1667 -78.9001 44.1667],3.151,2.187,4.673,3.647,3.27,2.149,4.667,3.634,246.0,569.0
2015-05-23,Toronto,Canada,-79.4001,43.6667,[-79.9001 43.1667 -78.9001 44.1667],3.132,2.187,4.673,3.639,3.257,2.128,4.666,3.626,255.0,572.0
2015-05-24,Toronto,Canada,-79.4001,43.6667,[-79.9001 43.1667 -78.9001 44.1667],3.164,2.181,4.683,3.681,3.179,2.093,4.62,3.587,237.0,576.0
2015-05-25,Toronto,Canada,-79.4001,43.6667,[-79.9001 43.1667 -78.9001 44.1667],3.216,2.271,4.719,3.813,3.051,2.031,4.424,3.515,206.0,574.0
2015-05-26,Toronto,Canada,-79.4001,43.6667,[-79.9001 43.1667 -78.9001 44.1667],3.216,2.181,4.719,3.787,3.104,2.01,4.394,3.49,207.0,569.0
2015-05-27,Toronto,Canada,-79.4001,43.6667,[-79.9001 43.1667 -78.9001 44.1667],3.248,2.187,4.673,3.707,3.083,2.001,4.476,3.434,245.0,569.0
2015-05-28,Toronto,Canada,-79.4001,43.6667,[-79.9001 43.1667 -78.9001 44.1667],3.322,2.248,4.719,3.8,3.115,2.031,4.53,3.485,259.0,597.0
2015-05-29,Toronto,Canada,-79.4001,43.6667,[-79.9001 43.1667 -78.9001 44.1667],3.322,2.181,4.768,3.787,3.049,1.997,4.505,3.388,221.0,585.0
2015-05-30,Toronto,Canada,-79.4001,43.6667,[-79.9001 43.1667 -78.9001 44.1667],3.105,1.972,4.535,3.509,2.986,1.97,4.483,3.336,262.0,589.0
2015-05-31,Toronto,Canada,-79.4001,43.6667,[-79.9001 43.1667 -78.9001 44.1667],3.322,2.231,4.683,3.728,2.958,1.96,4.489,3.342,233.0,589.0
2015-06-01,Toronto,Canada,-79.4001,43.6667,[-79.9001 43.1667 -78.9001 44.1667],3.322,2.231,4.683,3.728,2.956,2.0,4.235,3.373,233.0,630.0
2015-06-02,Toronto,Canada,-79.4001,43.6667,[-79.9001 43.1667 -78.9001 44.1667],3.322,2.231,4.683,3.715,2.968,1.986,4.256,3.381,235.0,635.0
2015-06-03,Toronto,Canada,-79.4001,43.6667,[-79.9001 43.1667 -78.9001 44.1667],3.248,2.231,4.369,3.522,2.904,1.95,4.025,3.247,219.0,636.0
2015-06-04,Toronto,Canada,-79.4001,43.6667,[-79.9001 43.1667 -78.9001 44.1667],3.05,2.119,4.293,3.308,2.758,1.87,3.942,3.092,224.0,628.0
2015-06-05,Toronto,Canada,-79.4001,43.6667,[-79.9001 43.1667 -78.9001 44.1667],2.822,1.713,4.078,3.064,2.722,1.784,3.989,3.083,191.0,630.0
2015-06-06,Toronto,Canada,-79.4001,43.6667,[-79.9001 43.1667 -78.9001 44.1667],2.663,1.648,3.999,2.87,2.702,1.766,3.986,3.047,224.0,632.0
2015-06-07,Toronto,Canada,-79.4001,43.6667,[-79.9001 43.1667 -78.9001 44.1667],2.663,1.648,3.999,2.846,2.689,1.701,3.842,2.956,215.0,627.0
2015-06-08,Toronto,Canada,-79.4001,43.6667,[-79.9001 43.1667 -78.9001 44.1667],2.663,1.646,3.999,2.837,2.686,1.701,3.867,2.981,229.0,631.0
2015-06-09,Toronto,Canada,-79.4001,43.6667,[-79.9001 43.1667 -78.9001 44.1667],2.663,1.646,3.999,2.837,2.682,1.781,3.993,3.04,229.0,635.0
2015-06-10,Toronto,Canada,-79.4001,43.6667,[-79.9001 43.1667 -78.9001 44.1667],2.746,1.754,4.174,2.962,2.742,1.778,4.246,3.118,222.0,632.0
2015-06-11,Toronto,Canada,-79.4001,43.6667,[-79.9001 43.1667 -78.9001 44.1667],2.685,1.692,4.245,3.024,2.7,1.733,4.256,3.106,205.0,623.0
2015-06-12,Toronto,Canada,-79.4001,43.6667,[-79.9001 43.1667 -78.9001 44.1667],2.461,1.44,3.774,2.791,2.696,1.695,4.187,3.053,213.0,608.0
2015-06-13,Toronto,Canada,-79.4001,43.6667,[-79.9001 43.1667 -78.9001 44.1667],2.386,1.398,3.774,2.708,2.734,1.726,4.229,3.104,232.0,621.0
2015-06-14,Toronto,Canada,-79.4001,43.6667,[-79.9001 43.1667 -78.9001 44.1667],2.638,1.398,4.005,2.822,2.767,1.758,4.286,3.18,199.0,611.0
2015-06-15,Toronto,Canada,-79.4001,43.6667,[-79.9001 43.1667 -78.9001 44.1667],2.727,1.546,4.28,3.071,2.863,1.813,4.421,3.248,228.0,616.0
2015-06-16,Toronto,Canada,-79.4001,43.6667,[-79.9001 43.1667 -78.9001 44.1667],2.727,1.546,4.28,3.071,2.739,1.706,4.337,3.147,228.0,616.0
2015-06-17,Toronto,Canada,-79.4001,43.6667,[-79.9001 43.1667 -78.9001 44.1667],2.914,1.754,4.415,3.24,2.794,1.784,4.322,3.176,254.0,615.0
2015-06-18,Toronto,Canada,-79.4001,43.6667,[-79.9001 43.1667 -78.9001 44.1667],2.858,1.586,4.605,3.215,2.825,1.778,4.344,3.195,241.0,579.0
2015-06-19,Toronto,Canada,-79.4001,43.6667,[-79.9001 43.1667 -78.9001 44.1667],2.769,1.586,4.415,3.149,2.909,1.788,4.41,3.213,233.0,582.0